User: anonymous   Login
Location: Unspecified
(0.0000°N, 0.0000°E)
Time: 19:04:56
(UTC+02:00)
Language:

NATO 3D Rocket - Orbit

View from above orbital plane
View from above orbital plane
View from above satellite
View from above satellite

Ground track
Ground track

The orbit data is extracted from the following two-line orbital elements,

1 15392U 84115B   17295.85955843 +.00000118 +00000-0 -31169-4 0  9995
2 15392 021.4945 087.7290 1034516 348.4322 009.3937 12.45554271482153
Epoch (UTC): 22 October 2017 20:37:45
Eccentricity: 0.1034516
inclination: 21.4945°
perigee height: 670 km
apogee height: 2296 km
right ascension of ascending node: 87.7290°
argument of perigee: 348.4322°
revolutions per day: 12.45554271
mean anomaly at epoch: 9.3937°
orbit number at epoch: 48215

The dashed part of the orbit path shows where the satellite is in the earth's shadow,  

DLR